This demonstration page uses our WeatherBlox Daily Observations layout. Learn more.

Left ArrowRight Arrow

Hourly Observations for January 21, 2016

Temp ( °F °C ) Dew Point ( °F °C ) Humidity (%) Winds ( mph kmh ) Pressure ( in mb ) Visibility ( mi km ) Precip ( " mm )
12:54 am 00:54 Cloudy 26 -3.3 21 -6.1 81 81 SE 9 15 30.19 1022 8 13 0.00 0.00
1:33 am 01:33 Cloudy 25 -3.9 21 -6.1 85 85 ESE 7 11 30.24 1024 8 13 0.00 0.00
1:47 am 01:47 Cloudy 25 -3.9 21 -6.1 85 85 E 8 13 30.24 1024 8 13 0.00 0.00
1:54 am 01:54 Cloudy 25 -3.9 21 -6.1 85 85 ESE 7 11 30.19 1022 8 13 0.00 0.00
2:03 am 02:03 Cloudy 25 -4 19 -7 80 80 E 7 11 30.24 1024 8 13 0.00 0.00
2:54 am 02:54 Cloudy 25 -3.9 20 -6.7 81 81 ESE 8 13 30.20 1023 8 13 0.00 0.00
3:54 am 03:54 Cloudy 24 -4.4 20 -6.7 84 84 ENE 6 9 30.21 1023 8 13 0.00 0.00
4:54 am 04:54 Cloudy 24 -4.4 19 -7.2 81 81 NE 7 11 30.22 1023 8 13 0.00 0.00
5:04 am 05:04 Cloudy 25 -4 19 -7 80 80 ENE 6 9 30.27 1025 7 11 0.00 0.00
5:54 am 05:54 Cloudy 23 -5 18 -7.8 81 81 ENE 8 13 30.24 1024 7 11 0.00 0.00
6:04 am 06:04 Cloudy 23 -5 18 -8 80 80 ENE 7 11 30.30 1026 7 11 0.00 0.00
6:54 am 06:54 Cloudy 23 -5 18 -7.8 81 81 NE 8 13 30.26 1025 7 11 0.00 0.00
7:54 am 07:54 Cloudy 22 -5.6 18 -7.8 85 85 NE 8 13 30.29 1026 7 11 0.00 0.00
8:20 am 08:20 Cloudy with Mist and Fog 21 -6 18 -8 86 86 NNE 8 13 30.39 1029 6 10 0.00 0.00
8:54 am 08:54 Cloudy with Haze 22 -5.6 17 -8.3 82 82 NE 9 15 30.32 1027 6 10 0.00 0.00
9:03 am 09:03 Cloudy with Mist and Fog 21 -6 18 -8 86 86 NE 8 13 30.39 1029 6 10 0.00 0.00
9:27 am 09:27 Cloudy with Haze 23 -5 18 -7.8 81 81 ENE 10 17 30.36 1028 6 10 0.00 0.00
9:40 am 09:40 Cloudy with Mist and Fog 23 -5 19 -7 86 86 ENE 9 15 30.36 1028 5 8 0.00 0.00
9:54 am 09:54 Cloudy with Haze 24 -4.4 19 -7.2 81 81 ENE 7 11 30.33 1027 5 8 0.00 0.00
10:42 am 10:42 Cloudy with Haze 25 -4 19 -7 80 80 NE 6 9 30.36 1028 6 10 0.00 0.00
10:54 am 10:54 Hazy 25 -3.9 19 -7.2 78 78 N 8 13 30.35 1028 6 10 0.00 0.00
11:19 am 11:19 Mostly Cloudy with Haze 26 -3.3 20 -6.7 78 78 NNE 8 13 30.39 1029 5 8 0.00 0.00
11:33 am 11:33 Cloudy with Haze 26 -3.3 20 -6.7 78 78 NE 8 13 30.36 1028 6 10 0.00 0.00
11:54 am 11:54 Cloudy with Haze 27 -2.8 21 -6.1 78 78 N 7 11 30.36 1028 6 10 0.00 0.00
12:54 pm 12:54 Cloudy with Haze 27 -2.8 20 -6.7 75 75 NNE 8 13 30.35 1028 4 6 0.00 0.00
1:06 pm 13:06 Cloudy with Haze 28 -2 21 -6 74 74 NNE 8 13 30.36 1028 5 8 0.00 0.00
1:18 pm 13:18 Cloudy with Light Snow 28 -2 21 -6 74 74 NNE 8 13 30.36 1028 3 5 0.00 0.00
1:54 pm 13:54 Cloudy with Haze 29 -1.7 21 -6.1 72 72 NE 6 9 30.32 1027 3 5 0.00 0.03
2:54 pm 14:54 Mostly Cloudy 29 -1.7 21 -6.1 72 72 N 12 19 30.33 1027 8 13 0.00 0.00
3:54 pm 15:54 Mostly Sunny 29 -1.7 22 -5.6 75 75 N 15 24 30.33 1027 7 11 0.00 0.00
4:52 pm 16:52 Mostly Cloudy with Haze 27 -3 21 -6 80 80 N 9 15 30.36 1028 6 10 0.00 0.00
4:54 pm 16:54 Mostly Cloudy with Haze 27 -2.8 21 -6.1 78 78 NNE 12 19 30.35 1028 6 10 0.00 0.00
5:13 pm 17:13 Cloudy with Haze 27 -3 21 -6 80 80 N 10 17 30.39 1029 5 8 0.00 0.00
5:54 pm 17:54 Cloudy 26 -3.3 21 -6.1 81 81 NE 8 13 30.38 1029 7 11 0.00 0.00
6:18 pm 18:18 Cloudy 25 -4 19 -7 80 80 NNE 7 11 30.39 1029 7 11 0.00 0.00
6:35 pm 18:35 Cloudy 25 -4 19 -7 80 80 NNE 9 15 30.39 1029 8 13 0.00 0.00
6:54 pm 18:54 Cloudy 25 -3.9 20 -6.7 81 81 N 9 15 30.40 1029 7 11 0.00 0.00
7:25 pm 19:25 Cloudy 25 -4 19 -7 80 80 N 7 11 30.42 1030 7 11 0.00 0.00
7:49 pm 19:49 Cloudy 25 -4 19 -7 80 80 NNE 7 11 30.42 1030 7 11 0.00 0.00
7:54 pm 19:54 Cloudy 25 -3.9 20 -6.7 81 81 NNE 7 11 30.42 1030 8 13 0.00 0.00
8:13 pm 20:13 Cloudy 25 -3.9 20 -6.7 81 81 NNE 6 9 30.42 1030 8 13 0.00 0.00
8:33 pm 20:33 Cloudy 25 -3.9 20 -6.7 81 81 NE 6 9 30.42 1030 7 11 0.00 0.00
8:54 pm 20:54 Cloudy 25 -3.9 20 -6.7 81 81 NNE 7 11 30.42 1030 7 11 0.00 0.00
9:09 pm 21:09 Cloudy 25 -3.9 20 -6.7 81 81 NNE 6 9 30.42 1030 7 11 0.00 0.00
9:26 pm 21:26 Cloudy 25 -4 19 -7 80 80 NE 6 9 30.45 1031 7 11 0.00 0.00
9:54 pm 21:54 Cloudy 25 -3.9 20 -6.7 81 81 NNE 6 9 30.42 1030 7 11 0.00 0.00
10:17 pm 22:17 Cloudy 25 -3.9 20 -6.7 81 81 NNE 6 9 30.42 1030 7 11 0.00 0.00
10:54 pm 22:54 Cloudy with Haze 25 -3.9 20 -6.7 81 81 N 6 9 30.41 1030 6 10 0.00 0.00
11:50 pm 23:50 Cloudy with Mist and Fog 27 -3 21 -6 80 80 N 7 11 30.42 1030 6 10 0.00 0.00
11:54 pm 23:54 Cloudy with Mist and Fog 26 -3.3 22 -5.6 84 84 N 6 9 30.41 1030 6 10 0.00 0.00

Powered by AerisWeather